#timestamp,LO_Frequency,Hit,StdDev 
1611068415.1,286046998.1,N
1611068435.9,286047001.0,N
1611068455.7,286046998.2,N
1611068475.6,286047000.1,N
1611068495.4,286047004.4,N
1611068515.2,286047001.5,N
1611068535.1,286047003.9,N
1611068536.0,286047003.9,N
1611068555.8,286047002.0,N
1611068575.6,286047002.5,N
1611068595.5,286047001.7,N
1611068615.3,286047004.0,N
1611068635.2,286046999.9,N
1611068655.9,286046999.7,N
1611068675.7,286047000.6,N
1611068695.6,286047000.9,N
1611068715.4,286047001.0,N
1611068735.3,286046998.1,N
1611068755.1,286046999.7,N
1611068756.0,286046999.7,N
1611068775.8,286047001.9,N
1611068795.7,286047001.7,N
1611068815.5,286047002.1,N
1611068835.4,286047003.9,N
1611068855.2,286047004.4,N
1611068875.0,286047001.6,N
1611068875.9,286047001.6,N
1611068895.8,286047001.9,N
1611068915.6,286047004.0,N
1611068935.4,286047002.2,N
1611068955.3,286047002.6,N
1611068975.1,286047001.4,N
1611068995.9,286047001.7,N
1611069015.7,286047001.3,N
1611069035.5,286047002.4,N
1611069055.4,286046999.9,N
1611069075.2,286047000.0,N
1611069095.1,286047000.3,N
1611069096.0,286047000.3,N
1611069115.8,286047001.6,N
1611069135.6,286047001.0,N
1611069155.5,286047000.2,N
1611069175.3,286047002.3,N
1611069195.1,286047002.1,N
1611069215.9,286047001.4,N
1611069235.7,286047002.7,N
1611069255.6,286047000.2,N
1611069275.4,286047002.7,N
1611069295.2,286047002.3,N
1611069315.1,286047002.8,N
1611069316.0,286047002.8,N
1611069335.8,286046999.8,N
1611069355.7,286047002.6,N
1611069375.5,286047000.5,N
1611069395.3,286047001.0,N
1611069415.2,286046998.1,N
1611069435.0,286047000.0,N
1611069435.9,286047000.0,N
1611069455.8,286047002.8,N
1611069475.6,286047001.4,N
1611069495.4,286047003.6,N
1611069515.3,286047002.1,N
1611069535.1,286047002.2,N
1611069555.8,286047001.8,N
1611069575.7,286047002.2,N
1611069595.5,286047003.8,N
1611069615.4,286047001.7,N
1611069635.2,286047002.2,N
1611069655.0,286047006.7,Y
1611069655.9,286047006.7,P
1611069675.8,286047007.9,P
1611069695.6,286047007.0,N
1611069715.5,286047005.8,N
1611069735.3,286047005.3,N
1611069755.1,286047003.0,N
1611069775.9,286047005.4,N
1611069795.7,286047004.6,N
1611069815.6,286047007.2,Y
1611069835.4,286047000.5,P
1611069855.2,286046998.6,N
1611069875.1,286046998.5,N
1611069876.0,286046998.5,N
1611069895.8,286046999.2,N
1611069915.6,286046996.6,N
1611069935.5,286046996.7,N
1611069955.3,286046998.7,N
1611069975.2,286047001.1,N
1611069995.9,286046998.2,N
1611070015.7,286047000.2,N
1611070035.6,286047001.2,N
1611070055.4,286046998.1,N
1611070075.3,286046998.4,N
1611070095.1,286047000.2,N
1611070096.0,286047000.2,N
1611070115.8,286046999.7,N
1611070135.7,286047000.2,N
1611070155.5,286047001.6,N
1611070175.3,286047001.7,N
1611070195.2,286047001.3,N
1611070215.0,286047005.1,N
1611070215.9,286047005.1,N
1611070235.8,286047003.3,N
1611070255.6,286047005.5,N
1611070275.4,286047005.6,N
1611070295.3,286047005.5,N
1611070315.1,286047003.2,N
1611070335.9,286047005.6,N
1611070355.7,286047005.8,N
1611070375.5,286047003.0,N
1611070395.4,286047003.1,N
1611070415.2,286047003.8,N
1611070435.0,286047004.2,N
1611070435.9,286047004.2,N
1611070455.8,286047003.1,N
1611070475.6,286047005.5,N
1611070495.5,286047007.6,Y
1611070515.3,286047003.3,P
1611070535.1,286047003.3,P
1611070555.9,286047006.0,P
1611070575.7,286047003.4,N
1611070595.6,286047004.4,Y
1611070615.4,286046998.9,P
1611070635.2,286046999.2,N
1611070655.1,286046999.4,N
1611070656.0,286046999.4,N
1611070675.8,286046998.7,N
1611070695.7,286046998.4,N
1611070715.5,286046999.2,N
1611070735.3,286046999.3,N
1611070755.2,286046997.6,N
1611070775.0,286046995.7,N
1611070775.9,286046995.7,N
1611070795.8,286046997.9,N
1611070815.6,286046999.4,N
1611070835.4,286047001.2,N
1611070855.3,286047000.1,N
1611070875.1,286046999.9,N
1611070895.8,286047004.4,N
1611070915.7,286047003.5,N
1611070935.5,286047005.8,N
1611070955.4,286047005.5,N
1611070975.2,286047005.3,N
1611070995.0,286047005.5,N
1611070995.9,286047005.5,N
1611071015.8,286047005.9,N
1611071035.6,286047003.6,N
1611071055.4,286047003.7,N
1611071075.3,286047002.0,N
1611071095.1,286047002.3,N
1611071115.9,286047002.6,N
1611071135.7,286047003.6,N
1611071155.5,286047005.6,N
1611071175.4,286047013.0,Y
1611071195.2,286047014.6,P
1611071215.1,286047017.9,N
1611071216.0,286047017.9,N
1611071235.8,286047017.1,N
1611071255.6,286047012.8,N
1611071275.5,286047014.3,N
1611071295.3,286047020.4,Y
1611071315.1,286047005.7,P
1611071335.9,286047005.6,N
1611071355.7,286047005.5,N
1611071375.6,286047004.9,N
1611071395.4,286047013.3,Y
1611071415.2,286047007.7,P
1611071435.1,286047009.7,P
1611071436.0,286047009.7,P
1611071455.8,286047011.2,Y
1611071475.7,286047002.0,P
1611071495.5,286047000.3,N
1611071515.3,286047002.1,N
1611071535.2,286047000.7,N
1611071555.0,286046997.0,N
1611071555.9,286046997.0,N
1611071575.8,286046997.6,N
1611071595.6,286046999.0,N
1611071615.4,286046995.8,N
1611071635.3,286046993.6,N
1611071655.1,286046995.4,N
1611071675.8,286046996.1,N
1611071695.7,286046997.3,N
1611071715.5,286046996.9,N
1611071735.4,286047002.0,N
1611071755.2,286047001.6,N
1611071775.0,286046998.8,N
1611071775.9,286046998.8,N
1611071795.8,286046996.7,N
1611071815.6,286046995.7,N
1611071835.5,286046996.1,N
1611071855.3,286046996.0,N
1611071875.1,286046996.2,N
1611071895.9,286046995.7,N
1611071915.7,286046995.7,N
1611071935.6,286046994.4,N
1611071955.4,286046993.2,N
1611071975.2,286046988.6,Y
1611071995.1,286046991.6,P
1611071996.0,286046991.6,N
